Home   Weather   Newmarket   Past weeks

Flag for Canada Past Weather in Newmarket, Ontario, Canada — Yesterday and Last 2 Weeks

Now
68 °F

Sunny.


Feels Like: 68 °F
Forecast: 54 / 67 °F
Wind: 16 mph from East

Location: Borden

Current Time: Sep 30, 2016 at 4:27:36 PM

Latest Report: Sep 30, 2016 at 4:00 PM


Visibility: 9 mi

Pressure: 30.27 "Hg

Humidity: 43%

Dew Point: 45 °F

Location of NewmarketLocation

Past Weather in Newmarket — Graph

°F

Newmarket Temperature Yesterday

Maximum temperature yesterday: 61 °F (at 12:00 AM)
Minimum temperature yesterday: 55 °F (at 10:00 PM)
Average temperature yesterday: 58 °F

High & Low Weather Summary for the Past Weeks

 TemperatureHumidityPressure
High82 °F (Sep 19, 3:00 PM)100% (Sep 16, 1:00 AM)30.39 "Hg (Sep 16, 1:00 AM)
Low32 °F (Sep 24, 6:59 AM)26% (Sep 20, 5:00 PM)29.72 "Hg (Sep 27, 2:00 PM)
Average60 °F78%30.09 "Hg
* Reported Sep 15 3:00 PM — Sep 30 3:00 PM, Newmarket, Weather by CustomWeather, © 2016

Note: Actual official high and low records may vary slightly from our data, if they occured in-between our weather recording intervals... More about our weather records

Advertising

Newmarket Weather History for the Previous 24 Hours

Scroll right to see more
 ConditionsComfort  
Time TempWeatherWind HumidityBarometerVisibility
3:00 PM
Fri, Sep 30
66 °FSunny.13 mph60%30.29 "Hg9 mi
2:00 PM64 °FSunny.12 mph60%30.32 "Hg9 mi
1:00 PM64 °FSunny.9 mph64%30.34 "Hg9 mi
12:00 PM64 °FSunny.14 mph64%30.34 "Hg9 mi
11:00 AM61 °FSunny.13 mph72%30.36 "Hg9 mi
10:00 AM57 °FPassing clouds.7 mph82%30.37 "Hg9 mi
9:00 AM57 °FSunny.8 mph82%30.36 "Hg9 mi
8:00 AM55 °FPassing clouds.6 mph88%30.36 "Hg9 mi
7:00 AM55 °FPassing clouds.6 mph82%30.35 "Hg9 mi
6:04 AM55 °FLight rain. Passing clouds.5 mph82%30.35 "Hg9 mi
5:58 AM55 °FLight rain. Passing clouds.3 mph82%30.35 "Hg9 mi
5:00 AM57 °FClear.5 mph77%30.34 "Hg9 mi
4:00 AM57 °FClear.7 mph77%30.34 "Hg9 mi
3:00 AM57 °FPassing clouds.8 mph77%30.35 "Hg9 mi
2:00 AM57 °FPassing clouds.8 mph77%30.36 "Hg9 mi
1:00 AM57 °FPartly cloudy.7 mph82%30.37 "Hg9 mi
12:00 AM57 °FPassing clouds.10 mph82%30.39 "Hg9 mi
11:00 PM
Thu, Sep 29
55 °FPassing clouds.5 mph94%30.38 "Hg9 mi
10:00 PM55 °FOvercast.No wind94%30.38 "Hg9 mi
9:03 PM57 °FOvercast.8 mph88%30.39 "Hg6 mi
8:00 PM59 °FLight rain. Overcast.8 mph77%30.39 "Hg7 mi
7:00 PM61 °FOvercast.8 mph72%30.37 "Hg9 mi
6:00 PM61 °FMostly cloudy.8 mph72%30.35 "Hg9 mi
5:00 PM59 °FOvercast.5 mph82%30.36 "Hg9 mi
4:46 PM59 °FOvercast.5 mph82%30.35 "Hg9 mi
4:00 PM61 °FOvercast.14 mph72%30.35 "Hg9 mi
Weather by CustomWeather, © 2016

See weather overviewHow to use our weather pages